Wind_Speed
50 50 50 50 51 51 51 50 50 50 50 51 51 52 53 54 54 55 55 56 56 56 57 57 58 58 59 59 60 61 63 64 66 66 67 67 68 68 68 68 67 66
53 52 52 52 52 52 52 52 52 52 52 53 53 54 55 55 56 57 58 58 58 58 59 59 60 61 61 62 62 63 63 64 65 67 67 67 67 68 69 69 69 68
55 55 55 54 55 55 55 54 54 54 55 55 56 56 57 57 58 58 59 60 61 61 61 61 62 63 63 64 65 65 65 65 66 66 68 68 69 68 69 69 69 69
58 58 58 57 57 58 57 57 57 57 58 58 58 59 59 59 59 60 60 61 61 62 63 64 64 65 65 66 67 67 68 68 68 68 68 69 69 69 70 69 69 70
61 61 61 61 61 61 60 60 60 60 61 61 61 61 61 62 61 61 61 61 62 62 63 65 66 67 68 69 69 69 69 69 69 70 69 70 70 70 70 70 70 70
64 64 64 64 64 64 64 63 63 63 64 64 64 64 64 64 63 63 63 63 63 63 64 65 66 67 69 70 71 71 71 71 71 71 71 72 71 71 71 71 71 72
68 67 67 67 67 67 67 67 67 67 67 67 67 67 67 66 65 65 65 65 65 65 65 66 66 67 68 70 71 72 72 72 72 72 73 73 73 73 73 72 72 73
71 71 71 71 70 70 69 69 70 70 70 70 70 70 70 69 69 68 68 67 67 67 67 67 67 68 68 69 71 72 72 73 73 74 74 75 75 75 74 74 74 74
74 73 73 73 73 72 72 72 72 72 72 72 72 72 72 72 72 71 71 70 70 70 69 69 69 69 69 70 71 71 72 73 74 74 75 75 76 76 76 75 75 76
75 75 75 75 75 74 74 74 74 74 74 74 74 74 74 74 74 74 74 73 73 73 73 72 72 71 71 71 72 72 73 73 73 74 74 75 76 77 77 77 77 77
76 76 76 76 76 76 76 76 76 76 76 76 76 76 76 76 76 76 76 76 76 75 75 75 75 74 74 74 74 74 74 74 74 74 74 75 76 76 76 76 77 78
78 78 78 78 78 78 78 78 77 77 76 76 76 77 77 77 77 77 77 77 77 77 77 77 77 77 77 76 76 76 76 76 76 76 76 76 76 76 76 76 76 76
80 81 81 81 80 80 80 80 80 79 78 77 77 77 77 77 77 78 78 78 78 79 79 79 79 79 79 79 79 78 78 78 77 77 77 77 77 77 77 76 76 76
83 84 85 85 84 84 84 83 82 82 81 80 80 79 79 79 79 79 79 79 79 80 80 79 79 79 80 80 80 80 80 80 80 79 79 80 80 80 80 79 78 78
87 88 88 88 88 88 88 88 87 85 84 83 83 82 81 81 81 81 81 81 81 81 81 80 80 80 80 81 81 81 81 81 81 81 81 82 82 82 83 82 81 81
81 87 91 91 90 90 90 91 91 90 88 87 86 85 84 84 84 83 83 83 84 83 83 82 82 82 82 82 82 82 82 82 82 82 83 83 84 84 85 85 85 84
72 83 93 94 92 92 92 93 94 93 92 91 90 89 88 88 87 87 87 87 87 86 85 85 84 84 84 84 84 83 83 82 82 83 84 84 85 86 86 87 87 87
79 86 94 94 93 93 93 93 94 94 94 94 93 93 93 92 92 92 91 91 91 90 89 88 88 88 88 87 86 86 85 84 84 84 84 85 85 86 87 88 88 88
85 89 92 94 94 94 94 93 94 94 95 94 94 94 94 95 96 96 96 96 95 94 93 93 92 92 91 91 90 89 88 87 86 86 86 86 86 87 87 88 88 89
82 85 89 92 93 94 94 95 96 97 96 95 94 93 93 94 95 96 97 98 98 97 96 96 95 95 94 94 93 93 92 91 90 89 88 88 88 88 88 88 89 89
79 81 85 89 91 91 92 94 95 96 95 94 92 90 90 92 93 94 95 96 98 99 98 98 98 97 97 96 96 96 95 94 93 92 91 91 91 90 90 90 90 90
77 80 85 89 91 91 92 93 93 93 93 91 87 83 83 85 87 88 91 93 96 98 98 99 99 100 99 99 98 98 97 96 95 95 94 94 93 93 93 93 92 92
78 84 90 92 91 91 91 92 92 92 93 92 86 79 76 76 78 81 85 89 92 94 95 96 97 99 99 99 99 99 98 98 98 97 96 95 95 95 95 95 95 94
79 85 90 90 88 89 90 92 93 93 94 91 84 77 72 71 73 76 80 84 87 88 89 90 92 93 95 95 96 97 97 97 97 96 96 95 96 96 96 96 96 96
78 83 86 86 85 87 89 92 93 94 93 89 82 76 73 72 72 72 74 78 79 79 81 83 84 86 87 88 90 91 92 92 92 92 92 92 93 94 95 95 95 96
78 82 84 83 83 86 90 92 92 92 89 85 80 77 74 71 69 69 70 71 71 72 74 76 77 78 79 81 83 84 85 85 84 84 85 86 88 89 90 92 93 94
Wind_Direction
251 250 250 251 251 251 250 249 248 247 246 245 245 244 244 244 244 243 243 242 241 240 240 241 242 243 243 242 242 241 241 242 243 244 246 246 247 246 246 246 246 247
252 251 250 250 250 250 250 250 249 249 248 247 246 246 245 245 244 244 244 244 244 243 242 242 242 242 243 243 244 243 243 242 243 244 245 246 247 247 247 247 248 248
254 253 252 251 250 250 250 250 250 250 249 249 248 248 248 247 246 246 245 245 245 245 244 244 244 243 243 243 244 244 244 244 243 244 244 245 246 247 248 248 248 249
254 254 254 253 253 252 252 252 251 251 251 250 250 249 249 249 249 248 247 247 247 246 246 246 245 245 245 245 244 244 244 245 245 245 245 245 246 247 248 248 248 249
254 254 254 254 254 254 254 254 254 253 253 252 251 251 251 251 251 250 250 249 249 248 248 247 247 247 246 246 246 246 246 246 246 246 246 246 246 247 247 248 248 249
254 254 254 253 254 254 255 255 255 255 254 254 253 253 252 252 252 252 252 251 250 250 249 249 248 248 248 248 247 247 247 247 247 247 247 247 247 247 247 248 248 249
255 254 254 254 254 254 255 255 255 255 254 254 254 253 253 253 253 253 253 253 253 252 251 251 250 250 249 249 249 248 248 248 248 248 248 248 248 248 248 248 248 249
255 255 255 255 255 255 255 255 255 255 255 254 254 254 254 254 254 255 255 255 255 254 253 253 252 251 251 250 250 249 249 249 248 248 249 249 249 249 249 249 248 249
256 256 255 255 255 255 255 256 256 255 255 255 254 254 254 255 255 255 255 256 256 255 255 255 254 253 253 252 251 251 250 249 249 249 248 249 249 250 250 250 250 250
256 256 256 256 256 255 255 255 255 255 255 255 255 255 255 255 255 255 256 256 256 256 256 255 255 254 254 253 253 252 251 251 250 249 249 249 249 249 249 250 250 250
256 257 257 256 256 256 255 255 255 255 255 255 256 256 256 256 256 256 256 256 256 256 256 256 255 255 254 254 253 253 253 252 252 251 250 250 250 250 249 249 250 250
256 256 256 256 256 256 255 255 255 254 255 255 255 256 256 256 256 256 256 256 256 256 256 256 256 255 255 254 254 253 253 253 253 253 253 252 252 251 251 250 250 250
256 256 256 256 255 255 255 255 255 255 255 255 255 255 255 255 256 256 256 257 257 257 256 256 256 256 255 255 254 253 253 253 253 253 254 253 253 253 252 252 251 251
255 255 256 256 256 256 256 255 255 255 255 255 255 255 255 255 255 255 256 256 256 256 257 256 256 256 256 256 255 254 254 253 253 253 253 253 254 254 253 253 252 252
254 253 253 254 254 255 256 256 256 256 255 255 255 255 255 255 255 256 256 256 256 256 256 256 257 257 257 256 256 256 255 254 253 253 252 252 253 253 253 253 253 253
256 255 253 251 251 252 254 255 256 256 256 256 256 256 256 256 256 256 257 257 256 256 256 256 256 257 257 256 256 256 256 255 254 254 253 252 252 252 252 253 253 253
251 253 253 251 251 252 252 253 254 255 256 256 257 258 258 258 258 258 258 257 257 257 257 257 257 257 257 257 256 256 256 256 255 255 254 253 252 252 252 252 252 252
248 251 255 255 254 254 253 253 253 253 254 255 256 257 258 258 259 259 259 259 259 259 258 258 258 258 257 257 257 257 256 256 255 255 255 254 253 253 252 252 252 252
251 252 255 257 257 256 255 254 253 253 254 254 255 255 256 257 257 258 259 259 260 260 260 259 259 259 258 258 258 257 257 256 255 255 255 255 254 254 253 253 253 252
253 254 256 258 259 259 258 257 256 255 255 254 254 254 255 256 256 257 258 259 260 260 260 261 260 260 260 259 258 258 257 257 256 256 255 255 255 254 254 254 254 253
252 254 255 257 258 259 259 259 259 258 258 256 254 253 253 254 255 256 257 258 259 260 261 261 261 261 261 260 260 259 258 258 257 256 256 255 255 255 254 254 254 253
248 249 250 252 254 256 258 259 261 262 262 261 258 255 253 254 255 256 258 259 259 260 261 261 262 262 262 262 261 260 260 259 258 257 256 255 255 255 254 254 253 253
245 246 247 249 251 254 257 259 260 262 263 264 264 262 259 258 258 258 260 261 261 261 261 261 262 262 262 262 262 261 261 260 259 258 257 256 255 255 254 254 253 253
245 246 248 250 251 253 255 257 259 261 263 265 267 268 267 266 264 264 264 263 263 263 262 262 262 262 262 262 262 261 261 260 259 259 258 257 256 255 254 253 253 253
245 246 248 249 250 252 253 255 257 259 262 266 269 271 272 271 270 268 266 264 264 264 264 263 263 263 263 262 262 261 261 260 260 259 258 258 257 256 255 254 253 252
245 246 247 248 248 250 251 254 256 259 262 266 270 271 272 272 271 269 267 266 265 265 264 264 263 263 263 263 262 262 261 261 261 260 259 258 257 256 255 254 253 252
Height
10593 10594 10595 10596 10596 10598 10600 10602 10603 10605 10606 10607 10607 10608 10609 10610 10612 10613 10615 10616 10618 10620 10622 10624 10626 10627 10628 10629 10631 10633 10634 10636 10638 10639 10641 10643 10645 10648 10650 10653 10655 10658
10587 10588 10589 10590 10590 10591 10593 10595 10597 10598 10599 10600 10601 10602 10603 10604 10605 10606 10608 10609 10611 10613 10615 10617 10618 10620 10621 10622 10623 10625 10627 10628 10630 10632 10633 10635 10637 10639 10642 10644 10647 10650
10580 10581 10582 10584 10584 10585 10586 10588 10590 10591 10592 10593 10594 10595 10595 10597 10598 10600 10601 10602 10604 10606 10608 10610 10611 10612 10613 10614 10615 10616 10618 10620 10623 10625 10626 10628 10630 10632 10634 10637 10639 10641
10572 10574 10575 10577 10577 10578 10580 10582 10584 10584 10585 10586 10587 10587 10588 10589 10591 10592 10594 10596 10597 10599 10601 10602 10603 10604 10605 10606 10607 10608 10610 10612 10615 10617 10619 10621 10623 10624 10626 10629 10631 10634
10563 10565 10567 10568 10569 10570 10572 10574 10576 10577 10577 10578 10579 10580 10580 10581 10583 10585 10587 10588 10590 10592 10593 10594 10595 10596 10597 10598 10599 10600 10602 10605 10607 10609 10611 10613 10615 10617 10619 10621 10624 10626
10554 10556 10558 10559 10560 10562 10564 10566 10568 10569 10570 10570 10571 10572 10573 10573 10575 10577 10579 10580 10582 10583 10585 10586 10587 10588 10589 10590 10591 10593 10595 10597 10599 10601 10603 10604 10607 10609 10611 10614 10616 10617
10545 10547 10548 10549 10551 10553 10555 10557 10558 10560 10561 10561 10562 10563 10564 10566 10567 10569 10570 10571 10573 10574 10576 10577 10579 10580 10581 10582 10583 10585 10587 10589 10591 10593 10594 10596 10598 10601 10603 10606 10608 10609
10535 10537 10538 10539 10541 10543 10545 10547 10548 10549 10550 10552 10553 10554 10556 10557 10559 10560 10561 10562 10564 10565 10566 10568 10570 10571 10572 10573 10575 10577 10579 10581 10583 10585 10586 10587 10589 10591 10594 10597 10600 10601
10524 10526 10528 10529 10531 10533 10535 10536 10537 10538 10540 10541 10543 10544 10546 10548 10549 10551 10552 10553 10554 10556 10557 10559 10560 10562 10563 10565 10566 10568 10569 10571 10573 10576 10577 10578 10580 10582 10584 10588 10590 10592
10513 10515 10517 10518 10520 10522 10524 10525 10526 10527 10528 10530 10532 10534 10536 10538 10539 10540 10542 10543 10544 10545 10547 10549 10550 10552 10553 10555 10557 10558 10560 10561 10564 10566 10568 10569 10571 10573 10575 10578 10581 10582
10503 10504 10506 10507 10509 10511 10512 10513 10514 10515 10517 10519 10521 10523 10525 10527 10528 10530 10531 10532 10533 10535 10536 10538 10540 10541 10543 10545 10547 10548 10550 10552 10554 10556 10558 10560 10561 10563 10566 10568 10571 10573
10493 10494 10494 10496 10497 10499 10500 10501 10502 10504 10507 10509 10510 10512 10513 10516 10517 10519 10520 10521 10522 10524 10525 10527 10529 10531 10532 10534 10536 10538 10540 10542 10544 10546 10548 10550 10552 10553 10556 10558 10561 10563
10481 10481 10482 10484 10485 10486 10488 10489 10491 10494 10496 10498 10499 10501 10503 10505 10506 10507 10508 10510 10511 10513 10514 10516 10518 10520 10522 10524 10525 10528 10530 10533 10535 10537 10538 10540 10542 10543 10545 10548 10550 10552
10468 10468 10468 10470 10472 10474 10475 10477 10480 10482 10485 10486 10488 10490 10492 10494 10495 10496 10497 10499 10500 10501 10503 10505 10507 10510 10511 10513 10514 10517 10520 10523 10525 10527 10528 10530 10531 10532 10534 10536 10538 10541
10454 10454 10454 10456 10458 10461 10463 10465 10468 10470 10473 10475 10476 10478 10481 10483 10484 10485 10487 10488 10489 10490 10492 10494 10497 10499 10500 10501 10503 10506 10509 10512 10514 10516 10518 10519 10520 10521 10522 10524 10526 10528
10441 10437 10437 10440 10444 10448 10451 10452 10455 10458 10461 10463 10465 10467 10470 10472 10473 10474 10476 10477 10477 10479 10481 10484 10486 10487 10488 10489 10492 10495 10497 10500 10502 10504 10506 10507 10509 10510 10511 10512 10514 10516
10426 10418 10418 10425 10432 10436 10439 10441 10443 10446 10449 10451 10454 10456 10458 10460 10461 10462 10464 10464 10465 10467 10470 10472 10474 10475 10476 10477 10480 10483 10486 10488 10490 10492 10493 10495 10497 10498 10499 10500 10501 10504
10412 10405 10406 10413 10420 10424 10427 10429 10432 10435 10437 10440 10443 10445 10447 10448 10448 10449 10451 10451 10453 10456 10458 10460 10461 10462 10463 10465 10467 10470 10473 10475 10478 10479 10481 10482 10484 10486 10487 10488 10489 10491
10403 10399 10397 10400 10406 10410 10414 10418 10421 10423 10425 10428 10432 10434 10434 10435 10436 10437 10438 10439 10441 10443 10445 10446 10447 10449 10450 10452 10454 10456 10459 10462 10465 10467 10469 10470 10472 10473 10475 10476 10477 10479
10396 10394 10391 10389 10393 10398 10402 10405 10407 10409 10413 10416 10419 10421 10422 10423 10423 10424 10425 10427 10429 10430 10432 10432 10434 10435 10437 10438 10440 10442 10445 10448 10452 10455 10457 10458 10460 10461 10462 10464 10465 10466
10389 10389 10385 10381 10380 10384 10388 10390 10392 10395 10399 10402 10405 10408 10410 10410 10411 10412 10413 10415 10416 10417 10418 10419 10420 10421 10423 10424 10426 10428 10431 10434 10437 10441 10443 10445 10447 10448 10449 10451 10452 10453
10381 10378 10372 10367 10368 10372 10375 10376 10379 10382 10384 10386 10390 10395 10397 10399 10401 10402 10403 10403 10404 10404 10406 10407 10407 10407 10408 10410 10412 10414 10416 10419 10422 10425 10428 10430 10432 10433 10435 10437 10438 10439
10366 10361 10355 10355 10360 10363 10365 10366 10368 10370 10369 10371 10375 10380 10386 10390 10391 10392 10392 10391 10390 10391 10393 10394 10393 10393 10394 10395 10396 10398 10401 10403 10405 10408 10412 10415 10416 10417 10419 10421 10422 10425
10352 10347 10344 10348 10354 10357 10357 10357 10357 10357 10357 10358 10362 10368 10374 10378 10379 10380 10380 10378 10377 10378 10379 10380 10380 10379 10379 10380 10381 10382 10384 10386 10389 10393 10396 10398 10400 10401 10402 10405 10407 10409
10339 10336 10337 10342 10347 10349 10348 10348 10347 10347 10348 10349 10353 10358 10362 10365 10367 10368 10367 10366 10365 10366 10366 10366 10366 10365 10364 10365 10366 10366 10368 10371 10375 10378 10381 10382 10383 10384 10386 10389 10392 10394
10327 10326 10328 10334 10338 10338 10337 10337 10337 10338 10340 10343 10347 10350 10353 10355 10357 10356 10355 10354 10354 10354 10354 10353 10353 10353 10352 10352 10352 10353 10356 10358 10361 10364 10365 10366 10367 10369 10372 10373 10375 10378